When you browse on this site, cookies collect data to enhance your experience and personalize the content and advertising you see.
Visit our Privacy Policy to learn more. By continuing to use the site, you agree to this use of cookies and data.
  • In Sweden
  • List of Countries
  • For 7 days
  • Water Temperature
  • Weather Map
  • Weather Widgets
  • user-avatar
    Login

    Hourly Weather Harer

    Today, 23 August, Friday

    Time Temperature Precipitation Wind Pressure Humidity
    00:00 +18°C° 0.2 mm 4 mps 605 mmHg 76%
    01:00 +17°C° 0 mm 4 mps 605 mmHg 78%
    02:00 +17°C° 0 mm 4 mps 604 mmHg 80%
    03:00 +17°C° 0 mm 3 mps 604 mmHg 84%
    04:00 +16°C° 0.2 mm 3 mps 604 mmHg 85%
    05:00 +16°C° 0.2 mm 3 mps 604 mmHg 86%
    06:00 +16°C° 0.2 mm 3 mps 605 mmHg 87%
    07:00 +15°C° 0.1 mm 4 mps 605 mmHg 84%
    08:00 +17°C° 0.1 mm 4 mps 606 mmHg 81%
    09:00 +17°C° 0 mm 5 mps 606 mmHg 75%
    10:00 +20°C° 0 mm 5 mps 607 mmHg 71%
    11:00 +21°C° 0 mm 5 mps 607 mmHg 66%
    12:00 +22°C° 0 mm 5 mps 607 mmHg 61%
    13:00 +23°C° 0.4 mm 5 mps 607 mmHg 58%
    14:00 +25°C° 0.4 mm 5 mps 606 mmHg 56%
    15:00 +25°C° 0.4 mm 4 mps 606 mmHg 53%
    16:00 +23°C° 0.4 mm 4 mps 605 mmHg 57%
    17:00 +22°C° 0.4 mm 4 mps 605 mmHg 60%
    18:00 +22°C° 0.4 mm 4 mps 605 mmHg 63%
    19:00 +21°C° 0.3 mm 4 mps 605 mmHg 65%
    20:00 +20°C° 0.3 mm 4 mps 605 mmHg 67%
    21:00 +19°C° 0.3 mm 4 mps 605 mmHg 68%
    22:00 +19°C° 0 mm 4 mps 605 mmHg 68%
    23:00 +18°C° 0 mm 4 mps 605 mmHg 67%

    Tomorrow, 24 August, Saturday

    Time Temperature Precipitation Wind Pressure Humidity
    00:00 +18°C° 0 mm 4 mps 605 mmHg 67%
    01:00 +17°C° 0 mm 4 mps 605 mmHg 69%
    02:00 +17°C° 0 mm 3 mps 605 mmHg 71%
    03:00 +16°C° 0 mm 3 mps 604 mmHg 73%
    04:00 +16°C° 0 mm 3 mps 605 mmHg 74%
    05:00 +16°C° 0 mm 3 mps 605 mmHg 76%
    06:00 +14°C° 0 mm 3 mps 605 mmHg 78%
    07:00 +17°C° 0 mm 4 mps 606 mmHg 75%
    08:00 +17°C° 0 mm 5 mps 607 mmHg 72%
    09:00 +19°C° 0 mm 6 mps 608 mmHg 70%
    10:00 +20°C° 0 mm 6 mps 608 mmHg 69%
    11:00 +20°C° 0 mm 6 mps 608 mmHg 68%
    12:00 +21°C° 0 mm 6 mps 608 mmHg 67%
    13:00 +21°C° 0.1 mm 5 mps 607 mmHg 66%
    14:00 +22°C° 0.1 mm 5 mps 606 mmHg 65%
    15:00 +22°C° 0.1 mm 5 mps 606 mmHg 64%
    16:00 +21°C° 0.1 mm 4 mps 606 mmHg 66%
    17:00 +21°C° 0.1 mm 4 mps 605 mmHg 68%
    18:00 +20°C° 0.1 mm 4 mps 605 mmHg 70%
    19:00 +19°C° 0.1 mm 3 mps 605 mmHg 73%
    20:00 +18°C° 0.1 mm 3 mps 605 mmHg 75%
    21:00 +17°C° 0.1 mm 2 mps 605 mmHg 78%
    22:00 +17°C° 0.1 mm 2 mps 605 mmHg 77%
    23:00 +17°C° 0.1 mm 3 mps 606 mmHg 76%

    Day after tomorrow, 25 August, Sunday

    Time Temperature Precipitation Wind Pressure Humidity
    00:00 +17°C° 0.1 mm 3 mps 606 mmHg 75%
    01:00 +17°C° 0 mm 3 mps 605 mmHg 78%
    02:00 +15°C° 0 mm 4 mps 605 mmHg 82%
    03:00 +14°C° 0 mm 4 mps 605 mmHg 86%
    04:00 +14°C° 0 mm 3 mps 605 mmHg 86%
    05:00 +16°C° 0 mm 3 mps 606 mmHg 87%
    06:00 +16°C° 0 mm 2 mps 606 mmHg 88%
    07:00 +16°C° 0 mm 3 mps 606 mmHg 85%
    08:00 +17°C° 0 mm 3 mps 607 mmHg 81%
    09:00 +18°C° 0 mm 4 mps 607 mmHg 78%
    10:00 +19°C° 0 mm 4 mps 607 mmHg 74%
    11:00 +20°C° 0 mm 4 mps 607 mmHg 70%
    12:00 +21°C° 0 mm 4 mps 607 mmHg 67%
    13:00 +22°C° 0.1 mm 4 mps 607 mmHg 63%
    14:00 +22°C° 0.1 mm 3 mps 606 mmHg 60%
    15:00 +24°C° 0.1 mm 2 mps 606 mmHg 57%
    16:00 +24°C° 0.4 mm 2 mps 606 mmHg 60%
    17:00 +23°C° 0.4 mm 1 mps 605 mmHg 62%
    18:00 +23°C° 0.4 mm 1 mps 605 mmHg 65%
    19:00 +22°C° 0.3 mm 1 mps 605 mmHg 66%
    20:00 +21°C° 0.3 mm 1 mps 605 mmHg 67%
    21:00 +20°C° 0.3 mm 1 mps 605 mmHg 68%
    22:00 +19°C° 0.2 mm 2 mps 605 mmHg 70%
    23:00 +18°C° 0.2 mm 2 mps 605 mmHg 72%

    26 August, Monday

    Time Temperature Precipitation Wind Pressure Humidity
    00:00 +18°C° 0.2 mm 3 mps 606 mmHg 73%
    01:00 +17°C° 0.1 mm 3 mps 605 mmHg 76%
    02:00 +15°C° 0.1 mm 4 mps 604 mmHg 78%
    03:00 +14°C° 0.1 mm 4 mps 604 mmHg 81%
    04:00 +14°C° 0 mm 4 mps 604 mmHg 84%
    05:00 +13°C° 0 mm 3 mps 604 mmHg 87%
    06:00 +13°C° 0 mm 3 mps 604 mmHg 90%
    07:00 +14°C° 0 mm 3 mps 605 mmHg 85%
    08:00 +16°C° 0 mm 3 mps 606 mmHg 81%
    09:00 +18°C° 0 mm 3 mps 607 mmHg 76%
    10:00 +19°C° 0 mm 3 mps 607 mmHg 72%
    11:00 +20°C° 0 mm 4 mps 607 mmHg 67%
    12:00 +21°C° 0 mm 4 mps 607 mmHg 63%
    13:00 +22°C° 0.3 mm 4 mps 607 mmHg 59%
    14:00 +23°C° 0.3 mm 4 mps 606 mmHg 55%
    15:00 +26°C° 0.3 mm 5 mps 606 mmHg 51%
    16:00 +25°C° 0.4 mm 4 mps 606 mmHg 54%
    17:00 +23°C° 0.4 mm 4 mps 605 mmHg 57%
    18:00 +22°C° 0.4 mm 3 mps 605 mmHg 60%
    19:00 +21°C° 0.6 mm 3 mps 605 mmHg 64%
    20:00 +20°C° 0.6 mm 3 mps 605 mmHg 68%
    21:00 +19°C° 0.6 mm 3 mps 605 mmHg 71%
    22:00 +18°C° 0.1 mm 3 mps 605 mmHg 70%
    23:00 +18°C° 0.1 mm 4 mps 605 mmHg 70%

    27 August, Tuesday

    Time Temperature Precipitation Wind Pressure Humidity
    00:00 +17°C° 0.1 mm 5 mps 605 mmHg 69%
    01:00 +16°C° 0 mm 5 mps 604 mmHg 72%
    02:00 +15°C° 0 mm 4 mps 604 mmHg 75%
    03:00 +15°C° 0 mm 4 mps 604 mmHg 78%
    04:00 +14°C° 0 mm 4 mps 604 mmHg 81%
    05:00 +14°C° 0 mm 4 mps 604 mmHg 83%
    06:00 +14°C° 0 mm 4 mps 605 mmHg 86%
    07:00 +15°C° 0 mm 4 mps 605 mmHg 83%
    08:00 +17°C° 0 mm 4 mps 606 mmHg 80%
    09:00 +18°C° 0 mm 4 mps 606 mmHg 78%
    10:00 +19°C° 0 mm 4 mps 606 mmHg 73%
    11:00 +20°C° 0 mm 4 mps 606 mmHg 69%
    12:00 +21°C° 0 mm 3 mps 606 mmHg 64%
    13:00 +22°C° 0.2 mm 3 mps 606 mmHg 58%
    14:00 +25°C° 0.2 mm 3 mps 606 mmHg 53%
    15:00 +26°C° 0.2 mm 3 mps 605 mmHg 47%
    16:00 +25°C° 0.1 mm 3 mps 605 mmHg 50%
    17:00 +25°C° 0.1 mm 2 mps 605 mmHg 53%
    18:00 +24°C° 0.1 mm 2 mps 604 mmHg 56%
    19:00 +23°C° 0.4 mm 2 mps 604 mmHg 60%
    20:00 +20°C° 0.4 mm 3 mps 604 mmHg 65%
    21:00 +19°C° 0.4 mm 3 mps 604 mmHg 70%
    22:00 +18°C° 0.1 mm 3 mps 604 mmHg 72%
    23:00 +17°C° 0.1 mm 4 mps 604 mmHg 73%

    28 August, Wednesday

    Time Temperature Precipitation Wind Pressure Humidity
    00:00 +15°C° 0.1 mm 4 mps 603 mmHg 75%
    01:00 +16°C° 0.5 mm 3 mps 603 mmHg 78%
    02:00 +14°C° 0.5 mm 3 mps 603 mmHg 81%
    03:00 +14°C° 0.5 mm 3 mps 603 mmHg 84%
    04:00 +14°C° 0 mm 2 mps 603 mmHg 84%
    05:00 +14°C° 0 mm 2 mps 604 mmHg 83%
    06:00 +14°C° 0 mm 2 mps 604 mmHg 83%
    07:00 +14°C° 0 mm 3 mps 605 mmHg 82%
    08:00 +15°C° 0 mm 4 mps 605 mmHg 80%
    09:00 +16°C° 0 mm 5 mps 606 mmHg 78%
    10:00 +18°C° 0 mm 4 mps 606 mmHg 74%
    11:00 +19°C° 0 mm 4 mps 606 mmHg 70%
    12:00 +20°C° 0 mm 4 mps 605 mmHg 66%
    13:00 +21°C° 0.3 mm 4 mps 605 mmHg 61%
    14:00 +23°C° 0.3 mm 4 mps 605 mmHg 55%
    15:00 +25°C° 0.3 mm 3 mps 605 mmHg 49%
    16:00 +24°C° 0.3 mm 3 mps 605 mmHg 53%
    17:00 +22°C° 0.3 mm 3 mps 604 mmHg 57%
    18:00 +23°C° 0.3 mm 2 mps 604 mmHg 60%
    19:00 +20°C° 0.4 mm 3 mps 604 mmHg 65%
    20:00 +19°C° 0.4 mm 3 mps 604 mmHg 70%
    21:00 +18°C° 0.4 mm 3 mps 604 mmHg 76%
    22:00 +18°C° 0.9 mm 3 mps 604 mmHg 78%
    23:00 +17°C° 0.9 mm 3 mps 604 mmHg 80%
    Show more